STARLINK-32333, 61626

Orbit data source: Space-Track

STARLINK-32333, 61626 is a payload satellite owned by SpaceX/Seattle (US) in LEO that was launched on Wed, 23 Oct 2024 UTC via an FALCON 9 launch vehicle from the Air Force Eastern Test Range (AFETR). Payload-class satellites include a variety of spacecraft equipped with specific instruments for various scientific and technological missions. These include communications satellites like Starlink; space stations such as the ISS; scientific satellites like the Hubble; Earth observation satellites from companies like Planet Labs, Umbra, and HawkEye 360; GPS; miniature CubeSats for education and research; and military/defense satellites.

Loading next visibility...
Identifier
61626, 2024-191F
Orbit
LEO
Last TLE update
23 hours ago
Origin
Manufacturer
SpaceX/Seattle
Mission
Operational Commercial Communications
Bus & Motor
STARLINK V2M, Unknown motor
Mass
730 kg wet, ~700 kg dry
Launch date (UTC)
2024-10-23 (8 months ago)
Launch vehicle
FALCON 9
Launch site
Air Force Eastern Test Range (AFETR)
Object type
Payload
Rocket body
Debris
Shape & HBR
Box + 2 Pan, 29 m
Radar Cross Section
36.964 m², Large (>1 m²)

Expand to show TLE details & history

TLE from 23 hours ago
0 STARLINK-32333
1 61626U 24191F   25181.29441805  .00000266  00000-0  19197-4 0  9993
2 61626  43.0025 143.5510 0002214 278.8135  81.2466 15.27576508 38890
Epoch: 2025-06-30T07:03Z
TLE epoch observation values (Epoch: 2025-06-30T07:03:57.719Z)
Latitude
-0.00001°
Longitude
118.9542°
Altitude
482.604 km
Speed
7.626 km/s
True Right ascension
09h 34m 12s
True Declination
0° 00' 00"
Sunlit
Object was in daylight at epoch
Visualization orbit readout
Latitude
-36.34001°
Longitude
-14.79254°
Altitude
492.528 km
Speed
7.62 km/s
Apparent Right ascension
02h 59m 56s
Apparent Declination
-44° 34' 15"
Sunlit
Object is in daylight
Visualization observer readout
Local Sidereal Time
17:42:37
Azimuth
112.421° ESE
Elevation
-59.854°
Doppler factor
1
Orbital elements
Apogee altitude
486.524 km
Perigee altitude
483.485 km
Semi-major axis
6,863.141 km
Eccentricity
0.00022
Inclination
43.0025°
RAAN
143.551°
Arg. of periapsis
278.8135°
True anomaly
Unknown
Mean anomaly
81.2466°
Eccentric anomaly
Unknown
Mean motion
3.81732 °/min
Orbital period
94.31 mins
BSTAR
0.000019197
Loading maneuver chart data...
Loading SW <> Apogee altitude chart data...
Loading historical data...
Loading historical data...
Loading historical data...
Loading historical data...
Loading historical data...
Loading historical data...
Loading historical data...

STARLINK-32333 Visibility forecast

Observer location: undefined°, undefined°

Span
Click to sort rows by Start time (UTC) header in descending order
Start Az.
Max El. time (UTC)
Max El. Az.
Max El.
End time (UTC)
End Az.
4 mins2025-07-01 07:07:53.239Z255.081° W2025-07-01 07:09:53.239Z217.524° SW18.45°2025-07-01 07:11:53.239Z178.621° S
4 mins2025-07-02 00:04:53.239Z192.288° SSW2025-07-02 00:06:53.239Z138.649° SSE26.1°2025-07-02 00:08:53.239Z95.769° ESE
6 mins2025-07-02 01:42:53.239Z260.285° W2025-07-02 01:44:53.239Z284.942° WNW41.995°2025-07-02 01:48:53.239Z70.785° E
6 mins2025-07-02 03:21:53.239Z289.688° WNW2025-07-02 03:24:53.239Z25.161° NE37.246°2025-07-02 03:27:53.239Z78.913° E
5 mins2025-07-02 05:01:53.239Z285.297° WNW2025-07-02 05:03:53.239Z139.306° SSE44.106°2025-07-02 05:06:53.239Z112.924° SE
|